Location: Oberwesel
(50.1000°N, 7.7333°E)
Time: 12:08:09
(UTC+02:00)

ISS - Pass Details

Date: 24 May 2025
Orbit: 415 x 418 km, 51.6° (Epoch: 19 June)

Event Time Altitude Azimuth Distance (km) Brightness Sun altitude
Rises 22:59:30 0° 282° (WNW) 2,361 0.8 -11.9°
Reaches altitude 10° 23:02:17 10° 257° (WSW) 1,492 -0.7 -12.2°
Maximum altitude 23:04:11 14° 222° (SW) 1,247 -1.5 -12.3°
Enters shadow 23:05:34 12° 195° (SSW) 1,377 -1.5 -12.5°
